Regional Weather Roundup
Issued by NWS New Orleans/Baton Rouge, LA

Home | Current Version | Previous Version | Text Only | Print | Product List | Glossary On
Versions: 1 2 3 4 5 6 7 8 9 10 11 12 13 14 15 16 17 18 19 20 21 22 23 24 25 26 27
000
ASUS44 KLIX 231413
RWRLIX
NEW ORLEANS REGIONAL WEATHER ROUNDUP
NATIONAL WEATHER SERVICE NEW ORLEANS LA
900 AM CDT FRI JUN 23 2017

NOTE: "FAIR" INDICATES FEW OR NO CLOUDS BELOW 12,000 FEET WITH NO
      SIGNIFICANT WEATHER AND/OR OBSTRUCTIONS TO VISIBILITY.
      SKY/WX - SKY CONDITION AND SIGNIFICANT WEATHER.
      TMP - AIR TEMPERATURE.     DP    - DEWPOINT TEMPERATURE.
      RH  - RELATIVE HUMIDITY.   PRES  - PRESSURE.
      HI  - HEAT INDEX.          WCI   - WIND CHILL INDEX.

*  THESE STATIONS ARE NOT NWS OR FAA STATIONS AND ARE NOT UNDER
   NWS QUALITY CONTROL.

LAZ038-040-048-061>063-065>067-069-231500-
SOUTHEAST LOUISIANA

CITY           SKY/WX    TMP DP  RH WIND       PRES   REMARKS
N.O. INTL ARPT PTSUNNY   83  77  82 S14       29.93R
N.O. LAKEFRONT MOSUNNY   85  77  77 S22       29.93R HX  95
N.O. DOWNTOWN*   N/A     85  76  74 S15G23      N/A
RESERVE*       CLOUDY    85  77  76 S14G21    29.93R HX  96
SLIDELL        CLOUDY    84  76  76 S16G23    29.93R
BATON ROUGE    LGT RAIN  81  77  88 S14G23    29.90R
BOOTHVILLE     CLOUDY    83  79  88 S15       29.96R FOG
BELLE CHASSE   PTSUNNY   84  76  76 S18G25    29.93R
BOGALUSA*      CLOUDY    83  75  77 S10       29.94S
GALLIANO*      CLOUDY    83  75  76 S15G22    29.94R
NEW ROADS*       N/A     82  77  84 S8        29.90R
GONZALES*      CLOUDY    83  77  81 S17       29.91R
HAMMOND*       CLOUDY    82  73  74 S10       29.92R
HOUMA*         PTSUNNY   82  77  83 S12G18    29.93R
PORT FOURCHON* PTSUNNY   82  77  83 S13G21    29.94R HAZE

$$

MSZ070-080>082-231500-
SOUTHERN MISSISSIPPI

CITY           SKY/WX    TMP DP  RH WIND       PRES   REMARKS
MCCOMB         CLOUDY    80  75  84 S12       29.91S
GULFPORT       CLOUDY    83  78  85 S13G22    29.95S
BILOXI         PTSUNNY   82  79  89 S12       29.96S
PASCAGOULA     CLOUDY    82  76  81 S10G18    29.97R
STENNIS ARPT*  PTSUNNY   81  77  89 S12G17    29.95R

$$

COASTAL OBSERVATIONS
LAKE AND NEARSHORE STATIONS

STATION/POSITION TIME  TEMP    WIND        PRES    WAVE
                       AIR SEA DIR/SP/G            HT/PER
                 (UTC) (F)     (DEG/KT/KT) (MB)    (FT/S)
PASCAGOULA       1342   82     200/ 12/ 16 1014.5
WAVELAND YACHT   1342   82 79  190/ 12/ 17 1014.1
GRAND ISLE       1342   82 82  190/  8/ 12 1014.1
SOUTHWEST PASS   1342   81     180/ 18/ 22   N/A
NEW CANAL        1342   83 81  200/ 12/ 19 1013.4
SHELL BEACH      1342   83 83  180/ 12/ 16 1014.1

OFFSHORE STATIONS

STATION/POSITION TIME  TEMP    WIND        PRES    WAVE
                       AIR SEA DIR/SP/G            HT/PER
                 (UTC) (F)     (DEG/KT/KT) (MB)    (FT/S)
64 S DAUPHIN ISL 1350   81 80  170/ 16/ 19 1015.4    5/ 7

$$





USA.gov is the U.S. government's official web portal to all federal, state and local government web resources and services.